Boothville, LA

11:31 PM CDT on September 20, 2017 (GMT -0500)
Boothville

Weather History for KBVE - March, 2013

Change the Weather History Date:

Saturday, March 2, 2013

  Actual Average (KAXO) Record (KAXO)
Temperature  
Mean Temperature 44 °F -  
Max Temperature 48 °F 61 °F 73 °F (1999)
Min Temperature 39 °F 57 °F 46 °F (2009)
Degree Days  
Heating Degree Days 20    
Moisture  
Dew Point 32 °F    
Average Humidity 59    
Maximum Humidity 74    
Minimum Humidity 50    
Precipitation  
Precipitation 0.00 in - - ()
Sea Level Pressure  
Sea Level Pressure 30.19 in    
Wind  
Wind Speed 8 mph (NNW)    
Max Wind Speed 18 mph    
Max Gust Speed 25 mph    
Visibility 10 miles    
Events      
Averages and records for this station are not official NWS values.
T = Trace of Precipitation, MM = Missing Value Source: NWS Daily Summary

Daily Weather History Graph

Daily Weather History Graph

Search for Another Location

Airport or City:

Trip Planner

Search our weather history database for the weather conditions in past years. The results will help you decide how hot, cold, wet, or windy it might be!

Date:

Astronomy

Mar. 02, 2013 Rise Set
Actual Time 6:21 AM CST 5:57 PM CST
Civil Twilight 5:57 AM CST 6:21 PM CST
Nautical Twilight 5:30 AM CST 6:49 PM CST
Astronomical Twilight 5:02 AM CST 7:16 PM CST
Moon 11:08 PM CST (3/2) 9:16 AM CST (3/2)
Length of Visible Light 12h 23m
Length of Day
11h 36m
Waning Gibbous, 74% of the Moon is Illuminated
Mar 2
Waning Gibbous
Mar 4
Last Quarter
Mar 11
New
Mar 19
First Quarter
Mar 27
Full

Hourly Weather History & Observations

Time (CST) Temp. Windchill Dew Point Humidity Pressure Visibility Wind Dir Wind Speed Gust Speed Precip Events Conditions
12:51 AM 48.0 °F - 37.0 °F 66% 30.17 in 10.0 mi NNW 5.8 mph - N/A   Clear
1:51 AM 46.9 °F - 36.0 °F 66% 30.17 in 10.0 mi North 5.8 mph - N/A   Partly Cloudy
2:51 AM 46.0 °F 44.8 °F 37.0 °F 71% 30.15 in 10.0 mi North 3.5 mph - N/A   Partly Cloudy
3:51 AM 45.0 °F 43.5 °F 36.0 °F 71% 30.15 in 10.0 mi North 3.5 mph - N/A   Clear
4:51 AM 45.0 °F 42.6 °F 37.0 °F 74% 30.17 in 10.0 mi North 4.6 mph - N/A   Clear
5:51 AM 44.1 °F 40.8 °F 35.1 °F 71% 30.18 in 10.0 mi North 5.8 mph - N/A   Clear
6:51 AM 43.0 °F 39.5 °F 34.0 °F 71% 30.20 in 10.0 mi North 5.8 mph - N/A   Clear
7:51 AM 45.0 °F 41.2 °F 32.0 °F 60% 30.22 in 10.0 mi Variable 6.9 mph - N/A   Clear
8:51 AM 46.0 °F 43.1 °F 32.0 °F 58% 30.22 in 10.0 mi Variable 5.8 mph - N/A   Clear
9:51 AM 46.9 °F - 30.9 °F 54% 30.22 in 10.0 mi North 8.1 mph - N/A   Clear
10:51 AM 48.0 °F - 30.9 °F 52% 30.21 in 10.0 mi North 5.8 mph - N/A   Clear
11:51 AM 46.9 °F - 30.9 °F 54% 30.19 in 10.0 mi Variable 5.8 mph - N/A   Clear
12:51 PM 48.9 °F - 32.0 °F 52% 30.17 in 10.0 mi North 6.9 mph - N/A   Clear
1:51 PM 48.9 °F - 32.0 °F 52% 30.14 in 10.0 mi North 8.1 mph - N/A   Partly Cloudy
2:51 PM 48.0 °F - 30.9 °F 52% 30.13 in 10.0 mi NNW 17.3 mph 24.2 mph N/A   Mostly Cloudy
3:51 PM 48.9 °F - 30.9 °F 50% 30.13 in 10.0 mi NNW 13.8 mph - N/A   Mostly Cloudy
4:51 PM 48.0 °F - 32.0 °F 54% 30.14 in 10.0 mi NNW 16.1 mph 23.0 mph N/A   Mostly Cloudy
5:51 PM 46.0 °F 38.8 °F 28.9 °F 51% 30.17 in 10.0 mi NNW 18.4 mph 24.2 mph N/A   Overcast
6:51 PM 45.0 °F 37.9 °F 30.9 °F 58% 30.19 in 10.0 mi NNW 16.1 mph 25.3 mph N/A   Overcast
7:51 PM 45.0 °F 38.2 °F 28.9 °F 53% 30.21 in 10.0 mi NNW 15.0 mph 24.2 mph N/A   Overcast
8:51 PM 44.1 °F 37.4 °F 28.9 °F 55% 30.23 in 10.0 mi North 13.8 mph 21.9 mph N/A   Overcast
9:51 PM 43.0 °F 36.8 °F 30.0 °F 60% 30.25 in 10.0 mi North 11.5 mph 24.2 mph N/A   Overcast
10:51 PM 41.0 °F 32.5 °F 26.1 °F 55% 30.26 in 10.0 mi NNW 17.3 mph - N/A   Overcast
11:51 PM 39.9 °F 32.9 °F 28.0 °F 63% 30.25 in 10.0 mi NNW 11.5 mph - N/A   Partly Cloudy